Weather History for South Lake Tahoe, CA

Change the Weather History Date:

Monday, May 28, 2012

  Actual Average Record
Temperature  
Mean Temperature 46 °F 51 °F  
Max Temperature 63 °F 67 °F 84 °F (2003)
Min Temperature 28 °F 34 °F 25 °F (2006)
Degree Days  
Heating Degree Days 19 14  
Month to date heating degree days 470 489  
Since 1 July heating degree days 6683 7379  
Cooling Degree Days 0 0  
Month to date cooling degree days 0 0  
Year to date cooling degree days 0 0  
Moisture  
Dew Point 33 °F    
Average Humidity 63    
Maximum Humidity 92    
Minimum Humidity 34    
Precipitation  
Precipitation 0.00 in - 0.44 in (1945)
Month to date precipitation 0.12  
Year to date precipitation 9.88  
Sea Level Pressure  
Sea Level Pressure 30.02 in    
Wind  
Wind Speed 3 mph (SSW)    
Max Wind Speed 17 mph    
Max Gust Speed 26 mph    
Visibility 10 miles    
Events      
T = Trace of Precipitation, MM = Missing Value Source: NWS Daily Summary

Daily Weather History Graph

Daily Weather History Graph

Search for Another Location

Airport:

Trip Planner

Search our weather history database for the weather conditions in past years. The results will help you decide how hot, cold, wet, or windy it might be!

Date:

Astronomy

May. 28, 2012 Rise Set
Actual Time 5:38 AM PDT 8:17 PM PDT
Civil Twilight 5:06 AM PDT 8:48 PM PDT
Nautical Twilight 4:28 AM PDT 9:27 PM PDT
Astronomical Twilight 3:44 AM PDT 10:11 PM PDT
Moon 12:51 PM PDT (5/28) 12:59 AM PDT (5/28)
Length of Visible Light 15h 41m
Length of Day
14h 39m
Waxing Crescent, 49% of the Moon is Illuminated
May 28
Waxing Crescent
May 28
First Quarter
Jun 4
Full
Jun 11
Last Quarter
Jun 19
New

Hourly Weather History & Observations

Time (PDT) Temp. Windchill Dew Point Humidity Pressure Visibility Wind Dir Wind Speed Gust Speed Precip Events Conditions
12:53 AM 33.1 °F - 30.0 °F 89% 30.08 in 10.0 mi Calm Calm - N/A   Clear
1:53 AM 32.0 °F - 28.9 °F 88% 30.07 in 10.0 mi Calm Calm - N/A   Clear
2:53 AM 30.0 °F - 28.0 °F 92% 30.05 in 10.0 mi Calm Calm - N/A   Clear
3:53 AM 30.0 °F - 27.0 °F 88% 30.06 in 10.0 mi Calm Calm - N/A   Clear
4:53 AM 28.0 °F - 26.1 °F 92% 30.06 in 10.0 mi Calm Calm - N/A   Clear
5:53 AM 28.9 °F 25.2 °F 26.1 °F 89% 30.06 in 10.0 mi South 3.5 mph - N/A   Clear
6:53 AM 32.0 °F 28.7 °F 28.9 °F 88% 30.06 in 10.0 mi South 3.5 mph - N/A   Clear
7:53 AM 39.9 °F - 33.1 °F 77% 30.05 in 10.0 mi Calm Calm - N/A   Clear
8:53 AM 48.9 °F - 32.0 °F 52% 30.02 in 10.0 mi Variable 3.5 mph - N/A   Clear
9:53 AM 53.1 °F - 36.0 °F 52% 30.01 in 10.0 mi Variable 3.5 mph - N/A   Clear
10:53 AM 55.0 °F - 37.9 °F 53% 30.01 in 10.0 mi Variable 5.8 mph - N/A   Clear
11:53 AM 57.9 °F - 36.0 °F 44% 30.00 in 10.0 mi Variable 5.8 mph - N/A   Clear
12:53 PM 61.0 °F - 32.0 °F 34% 30.00 in 10.0 mi South 9.2 mph 23.0 mph N/A   Clear
1:53 PM 61.0 °F - 33.1 °F 35% 30.00 in 10.0 mi Variable 5.8 mph 23.0 mph N/A   Clear
2:53 PM 62.1 °F - 33.1 °F 34% 30.00 in 10.0 mi Variable 6.9 mph 20.7 mph N/A   Clear
3:53 PM 61.0 °F - 35.1 °F 38% 29.99 in 10.0 mi Variable 4.6 mph 17.3 mph N/A   Clear
4:53 PM 61.0 °F - 36.0 °F 39% 30.01 in 10.0 mi SSW 11.5 mph 21.9 mph N/A   Clear
5:53 PM 57.9 °F - 37.0 °F 46% 30.02 in 10.0 mi SSW 11.5 mph 19.6 mph N/A   Clear
6:53 PM 55.0 °F - 37.0 °F 51% 30.01 in 10.0 mi SSW 9.2 mph - N/A   Clear
7:53 PM 52.0 °F - 36.0 °F 54% 30.00 in 10.0 mi SSW 8.1 mph - N/A   Clear
8:53 PM 48.0 °F - 36.0 °F 63% 29.99 in 10.0 mi SSW 3.5 mph - N/A   Clear
9:53 PM 43.0 °F - 35.1 °F 74% 30.01 in 10.0 mi Calm Calm - N/A   Clear
10:53 PM 39.9 °F - 33.1 °F 77% 30.01 in 10.0 mi Calm Calm - N/A   Clear
11:53 PM 37.0 °F - 32.0 °F 82% 30.01 in 10.0 mi Calm Calm - N/A   Clear